7 * 24
多渠道服务支持
ORBCOMM FM23 是一颗由 ORBCOMM 公司运营的低轨(LEO)卫星,属于其第二代机队(FG2)的一部分,主要用于提供全球范围的物联网(IoT)和机器对机器(M2M)通信服务。该卫星运行在近地轨道,支持数据传输、远程监控和追踪应用,广泛应用于物流、运输、能源等行业。FM23 卫星采用先进通信技术,提高了数据传输效率和系统可靠性,是 ORBCOMM 扩展其全球物联网连接能力的重要组成部分。
| 数据来源 | 国际轨道数据 |
| 星历时间: | 2025-10-25T13:52:46+0800 15小时前 查看轨道信息 |
| 半长轴: | 7143.71km |
| 偏心率: | 0.0003434 |
| 轨道倾角: | 45.010° |
| 近地点辐角 | 188.954° |
| 升交点赤经 | 15.393° |
| 平近点角 | 171.125° |
| 近地点: | 763.121km |
| 远地点: | 768.029km |
| 周期: | 100.149分钟 |
| 每日圈数: | 14.378617 |